[[{"header":{"parameterUnit":"m.s-1","parameterCategory":1,"la1":30.2991,"la2":30.254,"lo1":-89.0895,"lo2":-89.0444,"dy":0.0017,"dx":0.0017,"nx":28,"ny":28,"refTime":"2024-04-07T03:00:00:Z","depth":0,"parameterNumber":2,"parameterNumberName":"U-component_of_WINDS"},"data":[0,0,0,0,0,0,0,0,0,0,0,0,0,0,0,0,0,0,0,0,0,0,0,0,0,0,0,0,0,0,0,0,0,0,0,0,0,0,0,0,0,0,0,0,0,0,0,0,0,0,0,0,0,0,0,0,0,0,-3.2752,-3.2754,0,-3.2925,-3.2927,-3.2929,-3.2972,-3.297,-3.2969,-3.2968,-3.3149,-3.3155,-3.3161,0,0,0,0,0,0,0,0,0,0,0,0,0,-3.2466,-3.2471,-3.2752,-3.2754,-3.2756,-3.2924,-3.2927,-3.2929,-3.2972,-3.297,-3.2969,-3.2968,-3.3148,-3.3154,-3.3161,0,0,0,0,0,0,0,0,0,0,0,0,0,-3.2609,-3.2472,-3.2751,-3.2797,-3.2803,-3.2924,-3.2927,-3.293,-3.2972,-3.297,-3.2969,-3.2967,-3.3145,-3.3154,-3.3162,-3.3251,0,0,-3.3189,-3.3193,0,0,0,0,0,0,0,0,-3.2601,-3.262,-3.2788,-3.2794,-3.2801,-3.2925,-3.2893,-3.3038,-3.2972,-3.2908,-3.2968,-3.2966,-3.3076,-3.3091,-3.3127,-3.3259,-3.3267,-3.319,-3.3196,-3.3199,-3.3202,0,0,0,0,0,0,0,-3.2591,-3.2613,-3.282,-3.2791,-3.2799,-3.2812,-3.2831,-3.292,-3.3,-3.2914,-3.2917,-3.2937,-3.308,-3.3118,-3.3132,-3.327,-3.319,-3.3198,-3.3203,-3.3207,-3.3488,-3.349,0,0,0,0,0,0,-3.2572,-3.2604,-3.2815,-3.2825,-3.2695,-3.2819,-3.2839,-3.2887,-3.2999,-3.3014,-3.2938,-3.2938,-3.3104,-3.3121,-3.3138,-3.3251,-3.3199,-3.3208,-3.3213,-3.3486,-3.3489,-3.3491,0,0,0,0,0,0,-3.2566,-3.2591,-3.2808,-3.2716,-3.2745,-3.2825,-3.2878,-3.2891,-3.293,-3.3017,-3.3032,-3.2962,-3.3103,-3.3126,-3.3223,-3.3258,-3.3211,-3.322,-3.3484,-3.3487,-3.349,-3.3476,0,0,0,0,0,0,-3.2558,-3.2588,-3.262,-3.2716,-3.2749,-3.2887,-3.288,-3.2896,-3.2945,-3.2946,-3.3044,-3.3059,-3.3104,-3.321,-3.3232,-3.3269,-3.3226,-3.3481,-3.3485,-3.3489,-3.3474,-3.3478,-3.3482,0,0,0,0,0,-3.2547,-3.2609,-3.2622,-3.2647,-3.2791,-3.2889,-3.2908,-3.2957,-3.2947,-3.2982,-3.3039,-3.3056,-3.3251,-3.3219,-3.3245,-3.3285,-3.3479,-3.3484,-3.3489,-3.3472,-3.3478,-3.3482,0,0,0,0,0,0,-3.2516,-3.2623,-3.2637,-3.2732,-3.2801,-3.2896,-3.294,-3.2961,-3.3036,-3.3034,-3.3094,-3.3116,-3.321,-3.3258,-3.3221,-3.3379,-3.3365,-3.3375,-3.3344,-3.335,-3.3354,-3.334,-3.3234,0,0,0,0,0,-3.252,-3.2589,-3.2679,-3.2754,-3.2788,-3.2859,-3.2903,-3.2936,-3.301,-3.304,-3.3104,-3.3177,-3.3256,-3.3306,-3.3382,-3.3482,-3.3506,-3.3523,-3.3527,-3.353,-3.3538,-3.3598,-3.3607,-3.3507,-3.3507,-3.3507,0,0,-3.2528,-3.2596,-3.2635,-3.275,-3.2807,-3.288,-3.2883,-3.2959,-3.3014,-3.3052,-3.3148,-3.3198,-3.3285,-3.3384,-3.3431,-3.3427,-3.3572,-3.3537,-3.3538,-3.3545,-3.3604,-3.3613,-3.3622,-3.3511,-3.351,-3.351,0,0,-3.2581,-3.2638,-3.2708,-3.2766,-3.2854,-3.2901,-3.2918,-3.3011,-3.3046,-3.3143,-3.3174,-3.3243,-3.3375,-3.3437,-3.3485,-3.3568,-3.3587,-3.3591,-3.3613,-3.3671,-3.3679,-3.3686,-3.3717,-3.3727,-3.3599,-3.3599,-3.3599,0,-3.2581,-3.269,-3.2742,-3.2817,-3.2868,-3.2907,-3.298,-3.3035,-3.3143,-3.3178,-3.3172,-3.3342,-3.3403,-3.3519,-3.3539,-3.3577,-3.36,-3.3579,-3.3673,-3.3681,-3.3689,-3.3719,-3.373,-3.3599,-3.3599,-3.3599,-3.3599,0,-3.2687,-3.2762,-3.2809,-3.2912,-3.2969,-3.3043,-3.3109,-3.3161,-3.319,-3.3239,-3.334,-3.3415,-3.3509,-3.354,-3.3568,-3.3662,-3.3656,-3.3661,-3.3648,-3.3697,-3.3727,-3.3739,-3.3599,-3.3599,-3.3599,-3.3599,0,0,-3.272,-3.2855,-3.2871,-3.292,-3.3022,-3.3082,-3.3161,-3.3252,-3.3296,-3.3372,-3.344,-3.3554,-3.356,-3.3616,-3.3653,-3.3703,-3.3767,-3.3703,-3.3706,-3.3712,-3.3877,-3.3872,-3.3884,-3.3781,-3.3784,-3.3786,-3.387,0,-3.2786,-3.2924,-3.2976,-3.309,-3.3162,-3.3203,-3.3272,-3.3343,-3.3393,-3.3464,-3.3519,-3.3599,-3.3601,-3.3635,-3.3687,-3.3747,-3.38,-3.3743,-3.3848,-3.3851,-3.3823,-3.39,-3.3894,-3.3969,-3.3882,-3.3884,-3.3885,0,-3.288,-3.2956,-3.3077,-3.3174,-3.3206,-3.3266,-3.3357,-3.3424,-3.3508,-3.3541,-3.3604,-3.3639,-3.3726,-3.371,-3.3832,-3.3791,-3.3839,-3.3876,-3.388,-3.3891,-3.387,-3.3913,-3.3994,-3.4006,-3.3904,-3.3902,-3.3901,0,-3.2894,-3.3027,-3.3118,-3.3158,-3.3273,-3.3315,-3.3365,-3.3447,-3.35,-3.3581,-3.3617,-3.3706,-3.3755,-3.3826,-3.3885,-3.3868,-3.4003,-3.3991,-3.4035,-3.4033,-3.406,-3.4057,-3.415,-3.4091,-3.4091,-3.409,-3.409,0,-3.2961,-3.3034,-3.3126,-3.3181,-3.3266,-3.3327,-3.3409,-3.3463,-3.3537,-3.3606,-3.3648,-3.3712,-3.3787,-3.3863,-3.391,-3.4006,-3.4028,-3.4059,-3.407,-3.4054,-3.405,-3.4085,-3.4081,-3.4093,-3.4093,-3.4092,-3.4092,0,-3.2989,-3.3053,-3.3155,-3.3256,-3.3284,-3.3341,-3.343,-3.3487,-3.354,-3.3628,-3.3652,-3.3736,-3.3827,-3.3894,-3.4012,-3.4045,-3.4147,-3.4159,-3.4118,-3.4124,-3.4164,-3.416,-3.4282,-3.4302,-3.4229,-3.423,-3.423,0,-3.3027,-3.3084,-3.3193,-3.3241,-3.3291,-3.3369,-3.3424,-3.3489,-3.3545,-3.3648,-3.3694,-3.3788,-3.3866,-3.4011,-3.4084,-3.4176,-3.4191,-3.4228,-3.4205,-3.4188,-3.4193,-3.4188,-3.4195,-3.423,-3.4231,-3.4231,-3.4231,0,-3.3089,-3.3119,-3.3195,-3.3285,-3.335,-3.3423,-3.3498,-3.3536,-3.3615,-3.3677,-3.377,-3.3831,-3.3954,-3.4048,-3.4147,-3.4202,-3.4231,-3.4239,-3.4254,-3.4238,-3.4212,-3.4227,-3.4127,-3.4235,-3.4235,-3.4234,-3.4234,-3.4234,-3.3124,-3.3178,-3.3263,-3.3349,-3.3412,-3.3482,-3.3542,-3.3603,-3.3682,-3.3785,-3.382,-3.3917,-3.4006,-3.4142,-3.4199,-3.4278,-3.4278,-3.4299,-3.4305,-3.4309,-3.4308,-3.42,-3.4297,-3.4297,-3.4297,-3.4297,-3.4297,0,-3.3188,-3.3246,-3.3324,-3.3428,-3.3497,-3.3518,-3.3603,-3.3659,-3.3744,-3.3823,-3.39,-3.401,-3.4103,-3.4185,-3.4282,-3.4331,-3.4347,-3.4354,-3.4351,-3.4364,-3.4303,-3.428,-3.434,-3.434,-3.434,-3.434,-3.434,-3.434,-3.323,-3.3323,-3.3364,-3.3491,-3.3549,-3.3644,-3.3691,-3.3758,-3.3821,-3.3942,-3.4019,-3.4072,-3.4153,-3.4258,-3.4345,-3.4367,-3.4402,-3.4406,-3.4431,-3.4373,-3.4367,-3.4362,-3.4341,-3.4413,-3.4413,-3.4485,-3.4486,-3.4487]},{"header":{"parameterUnit":"m.s-1","parameterCategory":1,"la1":30.2991,"la2":30.254,"lo1":-89.0895,"lo2":-89.0444,"dy":0.0017,"dx":0.0017,"nx":28,"ny":28,"refTime":"2024-04-07T03:00:00:Z","depth":0,"parameterNumber":3,"parameterNumberName":"V-component_of_WINDS"},"data":[0,0,0,0,0,0,0,0,0,0,0,0,0,0,0,0,0,0,0,0,0,0,0,0,0,0,0,0,0,0,0,0,0,0,0,0,0,0,0,0,0,0,0,0,0,0,0,0,0,0,0,0,0,0,0,0,0,0,4.5472,4.5471,0,4.5386,4.5385,4.5384,4.5326,4.5325,4.5325,4.5324,4.5231,4.5229,4.5227,0,0,0,0,0,0,0,0,0,0,0,0,0,4.5581,4.5579,4.5472,4.5471,4.547,4.5387,4.5385,4.5384,4.5326,4.5325,4.5325,4.5324,4.5232,4.5229,4.5227,0,0,0,0,0,0,0,0,0,0,0,0,0,4.5518,4.5579,4.5472,4.5431,4.5426,4.5387,4.5385,4.5384,4.5326,4.5325,4.5325,4.5324,4.5233,4.523,4.5226,4.522,0,0,4.5217,4.5215,0,0,0,0,0,0,0,0,4.5522,4.5514,4.5438,4.5434,4.5428,4.5366,4.539,4.5329,4.5326,4.5364,4.5324,4.5324,4.5276,4.5269,4.5255,4.5215,4.5211,4.5217,4.5215,4.5213,4.5212,0,0,0,0,0,0,0,4.5526,4.5518,4.5438,4.5437,4.5431,4.5415,4.5406,4.5378,4.5324,4.536,4.5356,4.5347,4.5273,4.5258,4.5252,4.521,4.5217,4.5214,4.5212,4.5211,4.5163,4.5163,0,0,0,0,0,0,4.5538,4.5522,4.5441,4.5435,4.5475,4.5414,4.5403,4.5387,4.5325,4.5315,4.5348,4.5345,4.5263,4.5256,4.5248,4.5238,4.5213,4.521,4.5209,4.5162,4.5163,4.5164,0,0,0,0,0,0,4.554,4.5531,4.5444,4.5477,4.5465,4.5413,4.5395,4.5385,4.537,4.5315,4.5305,4.5342,4.5263,4.5253,4.5228,4.5233,4.5209,4.5206,4.5162,4.5162,4.5163,4.5215,0,0,0,0,0,0,4.5544,4.5532,4.553,4.5478,4.5464,4.5427,4.5395,4.5384,4.5365,4.536,4.5307,4.5297,4.5261,4.5233,4.5225,4.5229,4.5204,4.5161,4.5162,4.5163,4.5213,4.5218,4.5222,0,0,0,0,0,4.5548,4.5546,4.553,4.5521,4.546,4.5427,4.5419,4.5379,4.5366,4.5363,4.5328,4.5299,4.5235,4.5231,4.5221,4.5224,4.516,4.5162,4.5163,4.5211,4.5217,4.5222,0,0,0,0,0,0,4.5598,4.5539,4.552,4.5502,4.547,4.5417,4.5412,4.5387,4.5356,4.5353,4.5304,4.5292,4.5273,4.5246,4.5243,4.5216,4.5194,4.5193,4.5234,4.5239,4.5244,4.525,4.5201,0,0,0,0,0,4.5607,4.5587,4.5536,4.5525,4.551,4.5464,4.5448,4.5421,4.5385,4.5371,4.5334,4.5299,4.5271,4.5254,4.5225,4.5209,4.5197,4.5207,4.5211,4.5216,4.5215,4.5207,4.521,4.5168,4.5168,4.5168,0,0,4.5625,4.5591,4.558,4.5534,4.5506,4.5486,4.5453,4.5432,4.5416,4.5367,4.5342,4.5315,4.5272,4.5253,4.5242,4.523,4.5225,4.5217,4.5221,4.5218,4.5208,4.5212,4.5216,4.5169,4.5169,4.5169,0,0,4.5648,4.562,4.5609,4.5582,4.5542,4.5512,4.5509,4.546,4.5441,4.5416,4.538,4.5359,4.5312,4.5284,4.5264,4.528,4.5252,4.5271,4.5295,4.5287,4.5291,4.5293,4.53,4.5302,4.5271,4.5272,4.5272,0,4.5675,4.5644,4.5605,4.5587,4.5568,4.5526,4.5514,4.549,4.5441,4.5429,4.5416,4.5358,4.5326,4.53,4.5305,4.5289,4.5285,4.5277,4.5294,4.5296,4.5298,4.5303,4.5306,4.5274,4.5274,4.5274,4.5273,0,4.568,4.5659,4.5655,4.5612,4.5592,4.5577,4.5535,4.552,4.5495,4.5466,4.5442,4.5404,4.5367,4.5359,4.5333,4.533,4.5324,4.5303,4.528,4.5305,4.531,4.5311,4.5278,4.5277,4.5276,4.5276,0,0,4.573,4.5668,4.5667,4.5648,4.5602,4.5584,4.5568,4.5534,4.5523,4.5491,4.5476,4.5438,4.542,4.5397,4.5368,4.5361,4.5378,4.5341,4.534,4.535,4.5373,4.5388,4.5391,4.536,4.536,4.536,4.5376,0,4.5746,4.5716,4.5681,4.5663,4.5643,4.5605,4.559,4.556,4.5533,4.5512,4.5481,4.5456,4.5433,4.5419,4.5411,4.5378,4.5381,4.5376,4.5344,4.5344,4.5356,4.5393,4.5409,4.5426,4.5378,4.5378,4.5378,0,4.576,4.5733,4.5714,4.5671,4.5662,4.565,4.5617,4.5598,4.5563,4.5544,4.552,4.549,4.5471,4.5452,4.5424,4.5421,4.5406,4.5388,4.5388,4.5383,4.5362,4.539,4.5431,4.5434,4.538,4.538,4.538,0,4.5799,4.5758,4.5742,4.5726,4.5676,4.5669,4.5647,4.5612,4.5595,4.5566,4.5555,4.5524,4.5507,4.5483,4.5446,4.5435,4.5422,4.5399,4.5405,4.5406,4.5403,4.5404,4.5443,4.5394,4.5394,4.5394,4.5394,0,4.582,4.581,4.5759,4.5749,4.5736,4.5697,4.5685,4.5659,4.5629,4.5613,4.5577,4.5562,4.5513,4.5493,4.5463,4.5445,4.5437,4.5421,4.5413,4.5424,4.5426,4.5413,4.5411,4.5395,4.5395,4.5395,4.5395,0,4.5861,4.5827,4.5806,4.5762,4.575,4.5743,4.5704,4.5693,4.5665,4.5645,4.5638,4.5594,4.5568,4.5529,4.549,4.5471,4.5457,4.5445,4.547,4.5465,4.5474,4.5474,4.5505,4.5508,4.5458,4.5459,4.5459,0,4.5877,4.5868,4.5824,4.5812,4.5792,4.5772,4.5756,4.5717,4.5701,4.5662,4.5656,4.5628,4.5603,4.5563,4.5527,4.5498,4.5484,4.5498,4.5479,4.5491,4.5485,4.5486,4.5485,4.5501,4.5502,4.5503,4.5503,0,4.5909,4.5893,4.5871,4.5845,4.5827,4.5803,4.5777,4.5769,4.5724,4.5708,4.5683,4.5664,4.5627,4.5599,4.5566,4.5542,4.5516,4.551,4.551,4.552,4.5536,4.5528,4.5482,4.5509,4.5508,4.5508,4.5507,4.5507,4.5938,4.5929,4.5897,4.5875,4.5852,4.583,4.5818,4.579,4.5769,4.5737,4.5715,4.5691,4.5658,4.561,4.5589,4.5569,4.5557,4.5557,4.5556,4.5557,4.5561,4.554,4.5562,4.5562,4.5562,4.5562,4.5562,0,4.5968,4.5947,4.5927,4.5894,4.5876,4.5855,4.5826,4.5813,4.5793,4.5765,4.5743,4.5714,4.5688,4.5651,4.5622,4.5614,4.5601,4.5608,4.5607,4.5603,4.5573,4.5576,4.5619,4.5619,4.5619,4.5619,4.5619,4.5619,4.5982,4.5967,4.5948,4.5921,4.5899,4.5877,4.5863,4.5842,4.582,4.5791,4.577,4.5747,4.5715,4.5684,4.566,4.5649,4.564,4.5651,4.5637,4.561,4.5605,4.56,4.5602,4.5649,4.5649,4.5668,4.5668,4.5668]}]]